Regional Weather Roundup
Issued by NWS

Home | Current Version | Previous Version | Graphics & Text | Print | Product List | Glossary On
Versions: 1 2 3 4 5 6 7 8 9 10 11 12 13 14 15 16 17 18 19 20 21 22 23 24 25 26 27 28 29 30 31 32 33 34 35 36 37 38 39 40 41 42 43 44 45 46 47 48 49 50
447
ASUS45 KCYS 242010
RWRWY

WYOMING REGIONAL WEATHER ROUNDUP
NATIONAL WEATHER SERVICE CHEYENNE WY
200 PM MDT SAT JUN 24 2017

NOTE:  "FAIR" INDICATES FEW OR NO CLOUDS BELOW 12,000 FEET
WITH NO SIGNIFICANT WEATHER AND/OR OBSTRUCTIONS TO VISIBILITY.

WYZ001-242100-
YELLOWSTONE NATIONAL PARK

CITY           SKY/WX    TMP DP  RH WIND       PRES   REMARKS
LK YELLOWSTONE   N/A     60  36  40 VRB6      30.44F
W YELLOWSTONE  NOT AVBL

$$
WYZ002>013-054>058-071-098>099-242100-
NORTHERN WYOMING

CITY           SKY/WX    TMP DP  RH WIND       PRES   REMARKS
JACKSON        SUNNY     70  37  30 SW8       30.34F
CODY           FAIR      70  34  26 VRB5      30.34F
GREYBULL       FAIR      76  29  17 VRB5      30.27F
WORLAND        FAIR      73  34  23 E6        30.29F
SHERIDAN       FAIR      71  35  26 NW6       30.32F
BUFFALO        FAIR      65  34  31 N10G18    30.37S
GILLETTE       FAIR      71  30  21 N13G23    30.32F
NEWCASTLE      FAIR      66  27  22 NW13G30   30.32F

$$
WYZ014>020-022>026-101>103-242100-
CENTRAL WYOMING

CITY           SKY/WX    TMP DP  RH WIND       PRES   REMARKS
BIG PINEY      FAIR      70  32  24 W3        30.38F
PINEDALE       FAIR      66  30  26 NW9       30.39F
DUBOIS         FAIR      64  30  27 SE13G18   30.37F
LANDER         FAIR      68  33  27 VRB3      30.32F
RIVERTON       FAIR      70  30  22 SE10      30.33F
CASPER         FAIR      69  30  23 E9        30.33F
DOUGLAS        FAIR      73  33  23 VRB6      30.33F

$$
WYZ021-027>030-104>119-242100-
SOUTHERN WYOMING

CITY           SKY/WX    TMP DP  RH WIND       PRES   REMARKS
EVANSTON       FAIR      75  27  17 VRB7      30.37F
KEMMERER         N/A     70  27  19 CALM      30.40F
FORT BRIDGER   FAIR      73  25  16 NE7       30.40F
ROCK SPRINGS   FAIR      73  25  16 NE9       30.36F
DIXON          FAIR      74  24  15 N9        30.36S
RAWLINS        FAIR      72  26  18 VRB7      30.37F
SARATOGA       FAIR      70  28  21 NW8       30.39S
LARAMIE        FAIR      68  28  22 NW9       30.37S
CHEYENNE       FAIR      68  39  34 E8        30.35F
TORRINGTON     FAIR      74  30  19 S9        30.28F
PINE BLUFFS    MOCLDY    70  37  30 E6        30.34F

$$




USA.gov is the U.S. government's official web portal to all federal, state and local government web resources and services.